Weather History for KONL - March, 2013

Change the Weather History Date:

Thursday, March 7, 2013

  Actual Average Record
Temperature  
Mean Temperature 38 °F -  
Max Temperature 50 °F 42 °F 76 °F (1987)
Min Temperature 25 °F 19 °F -3 °F (1982)
Degree Days  
Heating Degree Days 28    
Moisture  
Dew Point 25 °F    
Average Humidity 67    
Maximum Humidity 86    
Minimum Humidity 38    
Precipitation  
Precipitation 0.00 in - - ()
Sea Level Pressure  
Sea Level Pressure 30.04 in    
Wind  
Wind Speed 14 mph (SSE)    
Max Wind Speed 23 mph    
Max Gust Speed 31 mph    
Visibility 10 miles    
Events      
Averages and records for this station are not official NWS values.
T = Trace of Precipitation, MM = Missing Value Source: NWS Daily Summary

Daily Weather History Graph

Daily Weather History Graph

Search for Another Location

Airport or City:

Trip Planner

Search our weather history database for the weather conditions in past years. The results will help you decide how hot, cold, wet, or windy it might be!

Date:

Astronomy

Mar. 07, 2013 Rise Set
Actual Time 6:59 AM CST 6:32 PM CST
Civil Twilight 6:31 AM CST 7:00 PM CST
Nautical Twilight 5:59 AM CST 7:32 PM CST
Astronomical Twilight 5:26 AM CST 8:05 PM CST
Moon 4:05 AM CST (3/7) 2:17 PM CST (3/7)
Length of Visible Light 12h 28m
Length of Day
11h 32m
Waning Crescent, 20% of the Moon is Illuminated
Mar 7
Waning Crescent
Mar 11
New
Mar 19
First Quarter
Mar 27
Full
Apr 2
Last Quarter

Hourly Weather History & Observations

Time (CST) Temp. Windchill Dew Point Humidity Pressure Visibility Wind Dir Wind Speed Gust Speed Precip Events Conditions
12:15 AM 28.2 °F 18.3 °F 22.1 °F 78% 30.09 in 10.0 mi SE 11.5 mph - N/A   Clear
12:35 AM 27.5 °F 16.8 °F 22.5 °F 81% 30.09 in 10.0 mi ESE 12.7 mph - N/A   Clear
12:55 AM 27.5 °F 16.8 °F 22.6 °F 82% 30.09 in 10.0 mi SE 12.7 mph - N/A   Clear
1:15 AM 27.5 °F 15.9 °F 22.5 °F 81% 30.08 in 10.0 mi SE 15.0 mph 18.4 mph N/A   Clear
1:35 AM 27.3 °F 16.1 °F 22.5 °F 82% 30.08 in 10.0 mi SE 13.8 mph - N/A   Clear
1:55 AM 27.1 °F 16.4 °F 22.5 °F 83% 30.07 in 10.0 mi SE 12.7 mph - N/A   Clear
2:15 AM 27.1 °F 16.9 °F 22.5 °F 83% 30.07 in 10.0 mi SE 11.5 mph - N/A   Clear
2:35 AM 27.3 °F 16.6 °F 22.5 °F 82% 30.06 in 10.0 mi SE 12.7 mph 18.4 mph N/A   Clear
2:55 AM 27.3 °F 16.6 °F 22.5 °F 82% 30.05 in 10.0 mi SE 12.7 mph - N/A   Clear
3:15 AM 28.0 °F 16.5 °F 22.6 °F 80% 30.05 in 10.0 mi SSE 15.0 mph 23.0 mph N/A   Clear
3:35 AM 27.9 °F 17.3 °F 22.8 °F 81% 30.05 in 10.0 mi SE 12.7 mph - N/A   Clear
3:55 AM 27.5 °F 16.3 °F 22.8 °F 83% 30.04 in 10.0 mi SSE 13.8 mph 19.6 mph N/A   Clear
4:15 AM 27.3 °F 16.1 °F 22.6 °F 83% 30.05 in 10.0 mi SSE 13.8 mph - N/A   Clear
4:35 AM 27.0 °F 14.7 °F 22.5 °F 83% 30.05 in 10.0 mi SSE 16.1 mph - N/A   Clear
4:55 AM 26.6 °F 14.3 °F 22.5 °F 84% 30.04 in 10.0 mi SSE 16.1 mph - N/A   Clear
5:15 AM 26.6 °F 14.7 °F 22.5 °F 84% 30.05 in 10.0 mi SSE 15.0 mph - N/A   Clear
5:35 AM 26.4 °F 13.6 °F 22.5 °F 85% 30.05 in 10.0 mi SSE 17.3 mph 24.2 mph N/A   Clear
5:55 AM 26.1 °F 13.6 °F 22.1 °F 85% 30.05 in 10.0 mi SSE 16.1 mph 23.0 mph N/A   Clear
6:15 AM 25.7 °F 12.3 °F 22.1 °F 86% 30.05 in 10.0 mi SSE 18.4 mph - N/A   Clear
6:35 AM 25.7 °F 11.9 °F 22.1 °F 86% 30.04 in 10.0 mi SSE 19.6 mph 25.3 mph N/A   Clear
6:55 AM 25.5 °F 12.0 °F 21.9 °F 86% 30.04 in 10.0 mi SSE 18.4 mph 25.3 mph N/A   Clear
7:15 AM 25.5 °F 12.9 °F 21.9 °F 86% 30.04 in 7.0 mi SSE 16.1 mph 21.9 mph N/A   Clear
7:35 AM 25.7 °F 13.1 °F 22.1 °F 86% 30.06 in 7.0 mi SSE 16.1 mph 20.7 mph N/A   Clear
7:55 AM 25.9 °F 12.5 °F 22.1 °F 86% 30.06 in 7.0 mi SSE 18.4 mph 25.3 mph N/A   Clear
8:15 AM 26.6 °F 12.4 °F 22.5 °F 84% 30.05 in 7.0 mi SSE 21.9 mph 25.3 mph N/A   Clear
8:35 AM 27.3 °F 13.3 °F 22.6 °F 83% 30.04 in 10.0 mi SSE 21.9 mph 26.5 mph N/A   Clear
8:55 AM 28.4 °F 14.4 °F 23.0 °F 80% 30.04 in 10.0 mi SSE 23.0 mph 29.9 mph N/A   Clear
9:15 AM 30.0 °F 16.6 °F 23.5 °F 77% 30.04 in 10.0 mi SSE 23.0 mph 31.1 mph N/A   Clear
9:35 AM 31.1 °F 20.1 °F 23.7 °F 74% 30.05 in 10.0 mi South 16.1 mph 26.5 mph N/A   Clear
9:55 AM 32.4 °F 20.6 °F 23.7 °F 70% 30.04 in 10.0 mi South 19.6 mph 27.6 mph N/A   Clear
10:15 AM 34.0 °F 22.1 °F 23.9 °F 67% 30.04 in 10.0 mi South 21.9 mph 26.5 mph N/A   Clear
10:35 AM 35.8 °F 25.1 °F 23.9 °F 62% 30.05 in 10.0 mi South 19.6 mph 24.2 mph N/A   Clear
10:55 AM 37.0 °F 27.7 °F 24.1 °F 59% 30.05 in 10.0 mi South 16.1 mph 20.7 mph N/A   Clear
11:15 AM 37.9 °F 28.5 °F 24.3 °F 58% 30.04 in 10.0 mi South 17.3 mph 21.9 mph N/A   Clear
11:35 AM 39.2 °F 30.2 °F 24.3 °F 55% 30.03 in 10.0 mi South 17.3 mph 23.0 mph N/A   Clear
11:55 AM 40.6 °F 32.0 °F 24.6 °F 53% 30.03 in 10.0 mi South 17.3 mph 21.9 mph N/A   Clear
12:15 PM 40.8 °F 32.3 °F 24.6 °F 53% 30.03 in 10.0 mi South 17.3 mph 23.0 mph N/A   Clear
12:35 PM 42.3 °F 34.1 °F 25.2 °F 51% 30.02 in 10.0 mi South 17.3 mph 21.9 mph N/A   Clear
12:55 PM 43.0 °F 36.0 °F 25.0 °F 49% 30.03 in 10.0 mi South 13.8 mph - N/A   Clear
1:15 PM 44.8 °F 38.3 °F 25.5 °F 47% 30.02 in 10.0 mi South 13.8 mph 18.4 mph N/A   Clear
1:35 PM 46.4 °F 40.4 °F 25.5 °F 44% 30.01 in 10.0 mi South 13.8 mph - N/A   Clear
1:55 PM 46.9 °F - 25.7 °F 44% 30.00 in 10.0 mi South 12.7 mph - N/A   Clear
2:15 PM 48.2 °F - 25.5 °F 41% 29.99 in 10.0 mi South 13.8 mph 20.7 mph N/A   Clear
2:35 PM 48.7 °F - 25.3 °F 40% 29.99 in 10.0 mi South 13.8 mph - N/A   Clear
2:55 PM 49.5 °F - 25.7 °F 40% 29.99 in 10.0 mi South 15.0 mph 19.6 mph N/A   Clear
3:15 PM 50.2 °F - 25.3 °F 38% 29.99 in 10.0 mi South 11.5 mph 20.7 mph N/A   Clear
3:35 PM 50.0 °F - 25.9 °F 39% 30.00 in 10.0 mi South 10.4 mph - N/A   Clear
3:55 PM 49.5 °F - 25.7 °F 40% 30.00 in 10.0 mi South 10.4 mph - N/A   Clear
4:15 PM 50.5 °F - 26.1 °F 39% 30.00 in 10.0 mi South 13.8 mph - N/A   Clear
4:35 PM 49.3 °F - 25.9 °F 40% 30.00 in 10.0 mi South 11.5 mph 17.3 mph N/A   Clear
4:55 PM 49.1 °F - 26.6 °F 42% 30.00 in 10.0 mi South 9.2 mph - N/A   Clear
5:15 PM 48.6 °F - 27.1 °F 43% 30.01 in 10.0 mi South 10.4 mph - N/A   Clear
5:35 PM 47.5 °F - 27.1 °F 45% 30.01 in 10.0 mi South 9.2 mph - N/A   Clear
5:55 PM 46.4 °F 42.4 °F 27.3 °F 47% 30.02 in 10.0 mi South 8.1 mph - N/A   Clear
7:35 PM 40.1 °F 34.1 °F 27.5 °F 61% 30.05 in 10.0 mi SSE 9.2 mph - N/A   Clear
7:55 PM 39.2 °F 33.6 °F 27.5 °F 63% 30.06 in 10.0 mi SSE 8.1 mph - N/A   Clear
8:15 PM 39.6 °F 34.0 °F 27.5 °F 62% 30.05 in 10.0 mi SSE 8.1 mph - N/A   Clear
8:35 PM 39.4 °F 34.5 °F 27.9 °F 63% 30.06 in 10.0 mi SSE 6.9 mph - N/A   Clear
8:55 PM 38.3 °F 33.2 °F 27.5 °F 65% 30.06 in 10.0 mi SSE 6.9 mph - N/A   Clear
9:15 PM 37.8 °F 31.8 °F 27.7 °F 67% 30.07 in 10.0 mi South 8.1 mph - N/A   Clear
9:35 PM 38.7 °F 33.6 °F 27.7 °F 65% 30.08 in 10.0 mi South 6.9 mph - N/A   Clear
9:55 PM 36.7 °F 31.2 °F 27.5 °F 69% 30.08 in 10.0 mi South 6.9 mph - N/A   Clear
10:15 PM 34.0 °F 28.8 °F 26.6 °F 74% 30.09 in 10.0 mi SSW 5.8 mph - N/A   Clear
10:35 PM 33.8 °F 29.6 °F 27.0 °F 76% 30.08 in 10.0 mi SSW 4.6 mph - N/A   Clear
10:55 PM 34.0 °F 29.8 °F 27.1 °F 76% 30.09 in 10.0 mi SSW 4.6 mph - N/A   Clear
11:15 PM 35.2 °F 31.2 °F 27.5 °F 73% 30.09 in 10.0 mi SW 4.6 mph - N/A   Clear
11:35 PM 33.4 °F 28.1 °F 27.1 °F 78% 30.09 in 10.0 mi SW 5.8 mph - N/A   Clear
11:55 PM 32.5 °F 29.3 °F 27.1 °F 80% 30.09 in 10.0 mi South 3.5 mph - N/A   Clear